sat.trackr.live / text

‹ back to catalog

STARLINK-4523

NORAD 53389 · 2022-097B

PAYLOAD ACTIVE UNKNOWN

§ Identity

Operator
Country
US
Launch date
2022-08-10
Launch site
AFETR
Launch vehicle
Mass (kg)
RCS (m²)

Purposes: comms

External: N2YO · Heavens-Above · Gunter

§ Orbital elements

Epoch: 2026-09-19T19:18:53.811072Z

Period
93.79 min
Inclination
53.1623°
Eccentricity
0.0000984
Mean motion
15.35397846 rev/d
Perigee alt
459.1 km
Apogee alt
460.4 km
Semi-major
6,837.9 km
B*
2.1894e-5
RAAN
325.0996°
Arg perigee
74.5532°
Mean anomaly
285.5580°
Rev number
22,807

§ Raw data

STARLINK-45231 53389U 22097B   26262.80478948  .00000383  00000+0  21894-4 0  99952 53389  53.1623 325.0996 0000984  74.5532 285.5580 15.35397846228074

JSON: /api/v1/satellites/53389 · /tle

For live sub-satellite position, see the globe view (requires WebGL).

§ Visibility from observer

Set your observer location to see the next 7 days of passes ≥ 10°. The values pass through the URL so the page stays shareable.

No JS? Fill the form by hand. The geolocation button needs JavaScript.